カタログに戻る

SL-12 DEB

運用中HEO
NORAD 26037·DEBRIS·🇷🇺 Russia

打ち上げ Sep 16, 1987 から Baikonur Cosmodrome

Loading…

次のパス (今後24時間)

TLE

最新Source: Space-Track

元期: Sep 13, 2026, 11:03 UTC

1 26037U 87079W   26256.46107843 -.00000242  00000-0 -74147-3 0  9999
2 26037  64.9870  19.9685 5411367  62.5575 341.8253  4.64002941468182

AllMySatでSL-12 DEBをリアルタイム追跡

Download on the App Store